铱星星座 920星 (IRIDIUM 920)

导读

IRIDIUM 920(铱星920)是美国铱星系统中的一颗低轨通信卫星,于1997年7月9日发射入轨。作为第一代铱星系统组成部分,它主要为全球提供语音、数据通信服务,尤其支持偏远地区与海洋领域的卫星通信覆盖,支撑起铱星系统全球实时个人卫星通信网络的构建,是早期全球卫星通信布局的重要组成卫星。

基本信息
目录编号:
24871
目录名称:
IRIDIUM 920
国际标识:
1997-034C
轨道中心:
EARTH
卫星名称:
铱星星座 920星
卫星全名:
铱星星座 920星 (IRIDIUM 920)
卫星状态:
在轨 (已飞行10569 天)
发射日期:
1997-07-09 UTC
国别 :
美国 (US)
星等 :
--
轨道信息
数据来源 国际轨道数据 AOE轨道数据
星历时间 2026-06-16T12:29:11+0800
9小时前
查看轨道信息
2026-06-15T02:00:00+0800
1天前
查看轨道信息
半长轴 7130.383km 7130.377km
偏心率 0.0010401 0.0010476
轨道倾角 86.396° 86.396°
近地点辐角 330.347° 335.580°
升交点赤经 60.074° 60.682°
平近点角 29.714° 130.368°
近地点 744.829km 744.77km
远地点 759.663km 759.71km
周期 99.869分钟 99.868分钟
每日圈数 14.418945 14.418965
详细信息
平衡模式:
三轴稳定
覆盖范围:
全球
运营商:
铱星通信公司
运营商所在国:
美国
使用方式:
暂无
卫星简介
铱星(Iridium)是由共66个运作中的通信卫星组成的卫星通信系统。这个系统原本规划77个通信卫星,所以用原子序数为77的铱元素来命名。铱卫星允许人们使用手持型电子设备进行全球性的语音及数据通讯。该卫星已退役。
2D轨道图
3D轨道图
轨道高度分析图
轨道倾角分析图
轨道综合分析图
查看轨道综合分析图